Junction, TX

11:49 PM CDT on August 25, 2016 (GMT -0500)
Kimble County

Weather History for KJCT - December, 2012

Change the Weather History Date:

Thursday, December 13, 2012

  Actual Average Record
Temperature  
Mean Temperature 42 °F -  
Max Temperature 59 °F 59 °F 75 °F (1996)
Min Temperature 25 °F 30 °F 14 °F (1997)
Degree Days  
Heating Degree Days 23    
Moisture  
Dew Point 35 °F    
Average Humidity 58    
Maximum Humidity 69    
Minimum Humidity 39    
Precipitation  
Precipitation 0.00 in - - ()
Sea Level Pressure  
Sea Level Pressure 30.14 in    
Wind  
Wind Speed 6 mph (SSW)    
Max Wind Speed 18 mph    
Max Gust Speed 25 mph    
Visibility 9 miles    
Events      
Averages and records for this station are not official NWS values.
T = Trace of Precipitation, MM = Missing Value Source: NWS Daily Summary

Daily Weather History Graph

Daily Weather History Graph

Search for Another Location

Airport or City:

Trip Planner

Search our weather history database for the weather conditions in past years. The results will help you decide how hot, cold, wet, or windy it might be!

Date:

Astronomy

Dec. 13, 2012 Rise Set
Actual Time 7:27 AM CST 5:39 PM CST
Civil Twilight 7:01 AM CST 6:05 PM CST
Nautical Twilight 6:31 AM CST 6:35 PM CST
Astronomical Twilight 6:01 AM CST 7:05 PM CST
Moon 7:39 AM CST (12/13) 6:22 PM CST (12/13)
Length of Visible Light 11h 04m
Length of Day
10h 11m
New Moon, 0% of the Moon is Illuminated
Dec 13
New Moon
Dec 19
First Quarter
Dec 28
Full
Jan 4
Last Quarter
Jan 11
New

Hourly Weather History & Observations

Time (CST) Temp. Windchill Dew Point Humidity Pressure Visibility Wind Dir Wind Speed Gust Speed Precip Events Conditions
12:51 AM 32.0 °F 28.7 °F 15.1 °F 50% 30.18 in 10.0 mi WNW 3.5 mph - N/A   Clear
1:51 AM 30.0 °F 26.5 °F 15.1 °F 54% 30.17 in 10.0 mi West 3.5 mph - N/A   Clear
2:51 AM 28.9 °F - 15.1 °F 56% 30.17 in 10.0 mi Calm Calm - N/A   Clear
3:51 AM 28.0 °F 24.2 °F 15.1 °F 58% 30.17 in 10.0 mi West 3.5 mph - N/A   Clear
4:51 AM 27.0 °F 23.0 °F 15.1 °F 61% 30.16 in 10.0 mi West 3.5 mph - N/A   Clear
5:51 AM 27.0 °F 23.0 °F 15.1 °F 61% 30.17 in 10.0 mi WNW 3.5 mph - N/A   Clear
6:51 AM 26.1 °F 21.9 °F 15.1 °F 63% 30.19 in 9.0 mi West 3.5 mph - N/A   Clear
7:51 AM 26.1 °F - 15.1 °F 63% 30.21 in 6.0 mi Calm Calm - N/A   Haze
8:51 AM 34.0 °F - 17.1 °F 50% 30.20 in 8.0 mi Calm Calm - N/A   Clear
9:51 AM 48.9 °F - 30.0 °F 48% 30.19 in 9.0 mi Calm Calm - N/A   Clear
10:51 AM 60.1 °F - 45.0 °F 57% 30.19 in 8.0 mi South 15.0 mph 21.9 mph N/A   Clear
11:51 AM 64.0 °F - 45.0 °F 50% 30.17 in 9.0 mi SSW 18.4 mph 25.3 mph N/A   Partly Cloudy
12:51 PM 64.0 °F - 45.0 °F 50% 30.14 in 9.0 mi SSW 15.0 mph 21.9 mph N/A   Mostly Cloudy
1:51 PM 64.0 °F - 46.9 °F 54% 30.10 in 10.0 mi South 13.8 mph 20.7 mph N/A   Overcast
2:51 PM 63.0 °F - 48.0 °F 58% 30.09 in 9.0 mi SSW 12.7 mph - N/A   Overcast
3:51 PM 63.0 °F - 46.9 °F 56% 30.09 in 9.0 mi SSE 12.7 mph - N/A   Overcast
4:35 PM 60.8 °F - 48.2 °F 63% 30.13 in 9.0 mi South 15.0 mph 18.4 mph N/A   Overcast
4:51 PM 60.1 °F - 46.9 °F 62% 30.09 in 9.0 mi South 10.4 mph - N/A   Overcast
5:51 PM 59.0 °F - 46.9 °F 64% 30.11 in 10.0 mi SE 9.2 mph - N/A   Overcast
6:51 PM 57.9 °F - 46.9 °F 67% 30.12 in 10.0 mi SE 6.9 mph - N/A   Overcast
7:51 PM 57.0 °F - 46.9 °F 69% 30.12 in 10.0 mi South 9.2 mph - N/A   Overcast
8:51 PM 57.0 °F - 46.0 °F 67% 30.12 in 10.0 mi SSE 8.1 mph - N/A   Overcast
9:51 PM 57.0 °F - 45.0 °F 64% 30.10 in 10.0 mi SSE 6.9 mph - N/A   Overcast
10:51 PM 57.0 °F - 45.0 °F 64% 30.09 in 10.0 mi SSE 5.8 mph - N/A   Overcast
11:51 PM 57.9 °F - 46.0 °F 65% 30.07 in 10.0 mi SSE 5.8 mph - N/A   Overcast